www.pogodaiklimat.ru

Погода и климат >> Архив погоды >> Индия >> Уттар-Прадеш >> Варанаси аэропорт


ПОГОДА в Варанаси аэропорту

  • Прогноз погоды в Варанаси аэропорту
  • Монитор погоды в Варанаси аэропорту

АРХИВ ПОГОДЫ в Варанаси аэропорту

Время (UTC), дата Ветер
(напр.,м/с)
 
Видим.   Явления Облачность Т
(С)
Тd
(С)
f
(%)
Тe
(С)
Тes
(С)
Комфортность P
(гПа)
Po
(гПа)
Тmin
(С)
Tmax
(С)
R
(мм)
R24
(мм)
S
(см)
18 10.09 СВ 2 4000 м мгла 3/0
[Ac trans]
+29.8 +26.2 81 +45 +45 опасность
перегрева
1000.4 990.9
00 11.09 СВ 2 2000 м мгла 6/3 900 м
[Sc Ac trans]
+27.6 +25.3 87 +40 +40 очень
душно
1000.3 990.7
03 11.09 СВ 3 2000 м мгла {дождь} 9/3 600 м
[Sc Ac trans]
+30.0 +25.8 78 +45 +47 опасность
перегрева
1001.4 991.9 +27.0 +35.0 0.0
06 11.09 СВ 3 4000 м мгла 8/5 600 м
[Sc Ac trans]
+32.2 +25.8 69 +47 +52 опасность
перегрева
1000.8 991.3
09 11.09 С 4 4000 м мгла 8/5 600 м
[Cb calv Ac trans]
+32.8 +25.8 67 +48 +51 опасность
перегрева
999.0 989.6
12 11.09 В 2 4000 м мгла 8/4 750 м
[Sc Ac trans]
+32.0 +26.4 72 +48 +48 опасность
перегрева
998.4 988.9 +33.6
15 11.09 С 2 4000 м мгла 8/4 750 м
[Cb calv Ac trans]
+30.6 +26.4 78 +47 +47 опасность
перегрева
1001.6 992.1
18 11.09 Ю 2 2000 м зарница 8/6 600 м
[Cb cap As op]
+29.4 +26.5 84 +45 +45 опасность
перегрева
1003.1 993.5 0.0
21 11.09 С 3 2000 м дымка 8/5 600 м
[Cb calv As trans]
+29.0 +27.1 90 +46 +46 опасность
перегрева
1001.5 991.9 0.0
00 12.09 С 2 2000 м дымка 9/4 600 м
[Sc As trans]
+28.4 +26.4 89 +43 +43 опасность
перегрева
1001.4 991.8 0.0
03 12.09 В 4 2000 м мгла 8/5 600 м
[Cb calv Ac trans]
+28.8 +26.9 89 +45 +46 опасность
перегрева
1003.0 993.4 +25.5 +33.6 0.0
06 12.09 В 5 4000 м мгла 6/6 600 м
[Sc]
+33.4 +25.9 65 +49 +53 опасность
перегрева
1002.4 992.9
09 12.09 СВ 6 4000 м слаб. дождь 8/5 600 м
[Cb calv Ac trans]
+33.0 +25.1 63 +47 +48 опасность
перегрева
999.6 990.2 0.0
12 12.09 В 3 4000 м мгла {дождь} 8/5 600 м
[Sc Ac trans]
+28.8 +26.3 86 +44 +44 опасность
перегрева
1000.1 990.5 +34.0 2
15 12.09 С 2 4000 м мгла 6/3 600 м
[Sc Ac trans]
+28.2 +26.2 89 +43 +43 опасность
перегрева
1002.2 992.6 2
00 13.09 В 2 4000 м мгла {дождь} 8/4 600 м
[Cb cap Ac trans]
+27.4 +25.7 90 +40 +40 очень
душно
1001.4 991.8 2
03 13.09 ЮВ 2 2000 м в посл. час дождь {гроза} 9/4 600 м
[Sc Ac trans]
+27.8 +26.1 90 +42 +44 опасность
перегрева
1002.7 993.1 +24.6 +34.0 18
06 13.09 ЮВ 2 4000 м мгла {дождь} 8/8 600 м
[Cu Sc]
+31.8 +25.6 70 +47 +50 опасность
перегрева
1002.9 993.4
09 13.09 В 4 4000 м мгла 8/6 600 м
[Cb calv]
+33.8 +25.4 62 +48 +51 опасность
перегрева
1000.3 990.9
15 13.09 СВ 3 2000 м гроза, ливневой дождь 10/8 600 м
[Cb cap As op]
+27.0 +25.6 92 +40 +40 очень
душно
1004.2 994.5 47
18 13.09 В 3 2000 м мгла {гроза, дождь} 9/5 600 м
[Cb calv Ac trans]
+26.6 +25.5 94 +39 +39 очень
душно
1004.1 994.4 49
00 14.09 ЮВ 1 2000 м дымка 9/5 600 м
[Sc Ac trans]
+26.4 +25.5 95 +39 +39 очень
душно
1003.7 994.0 49
03 14.09 Ю 3 2000 м дымка 4/0
[Ac trans]
+29.0 +25.6 82 +43 +48 опасность
перегрева
1004.8 995.2 +24.1 +33.8 49
06 14.09 Ю 2 4000 м мгла 4/4 600 м
[Sc diur, vesp]
+32.4 +26.0 69 +48 +59 опасность
перегрева
1004.7 995.2
09 14.09 Ю 2 4000 м мгла 8/5 750 м
[Sc Ac trans]
+33.8 +26.3 65 +50 +54 опасность
перегрева
1002.0 992.6
12 14.09 З 1 4000 м мгла 8/4 750 м
[Sc Ac trans]
+31.6 +26.3 74 +48 +48 опасность
перегрева
1002.3 992.8 +34.0
15 14.09 В 2 4000 м мгла 8/4 750 м
[Sc Ac trans]
+29.2 +26.1 83 +44 +44 опасность
перегрева
1004.6 995.0
18 14.09 В 3 4000 м мгла 5/3 600 м
[Sc Ac trans]
+27.6 +26.2 92 +42 +42 опасность
перегрева
1004.4 994.7
00 15.09 В 1 2000 м дымка 4/0
[Ac trans]
+26.4 +25.3 94 +38 +38 очень
душно
1003.8 994.1
03 15.09 Ю 2 2000 м мгла 8/1 750 м
[Sc Ac trans]
+31.0 +26.0 75 +46 +50 опасность
перегрева
1005.3 995.7 +25.2 +34.0
06 15.09 ЮЗ 2 4000 м мгла 6/5 600 м
[Sc diur, vesp Ac trans]
+32.0 +25.8 70 +47 +56 опасность
перегрева
1004.8 995.3
09 15.09 ЮЗ 2 4000 м мгла 6/5 750 м
[Cu Sc Ac trans]
+33.6 +25.8 64 +49 +55 опасность
перегрева
1002.0 992.6
12 15.09 ЮЗ 2 4000 м мгла 3/0
[Ac trans]
+32.2 +26.7 73 +50 +50 опасность
перегрева
1001.3 991.8 +34.0
15 15.09 С 1 4000 м мгла 3/0
[Ac trans]
+29.8 +26.7 83 +46 +46 опасность
перегрева
1003.8 994.2
18 15.09 штиль 0 2000 м мгла 3/0
[Ac trans]
+29.2 +27.0 88 +46 +46 опасность
перегрева
1003.5 993.9
00 16.09 Ю 1 2000 м дымка 5/3 600 м
[Sc Ac trans]
+28.4 +26.7 91 +44 +44 опасность
перегрева
1002.5 992.9
03 16.09 ЮЗ 3 2000 м мгла 4/0
[Ci fib]
+31.2 +25.3 71 +45 +51 опасность
перегрева
1004.0 994.5 +26.6 +34.0
06 16.09 ЮЗ 2 4000 м 6/6 600 м
[Cu Sc]
+34.8 +25.0 57 +48 +56 опасность
перегрева
1003.3 993.9
12 16.09 С 4 4000 м мгла 8/5 750 м
[Cb calv Ac trans]
+29.8 +25.9 80 +45 +45 опасность
перегрева
1001.2 991.6 +36.2
15 16.09 СВ 2 4000 м мгла {дождь} 8/4 750 м
[Sc Ac trans]
+28.4 +25.9 86 +42 +42 опасность
перегрева
1002.5 992.9 0.0
18 16.09 В 2 4000 м мгла 5/3 750 м
[Sc Ac trans]
+28.0 +26.0 89 +42 +42 опасность
перегрева
1003.2 993.6 0.0
00 17.09 В 3 2000 м гроза, ливневой дождь 10/5 600 м
[Cb cap As op]
+26.0 +24.9 94 +37 +37 очень
душно
1002.5 992.8 0.2
03 17.09 ЮВ 2 2000 м мгла 10/5 600 м
[Cb calv As op]
+26.6 +24.3 87 +37 +38 очень
душно
1005.2 995.5 +23.7 +36.2 0.2
06 17.09 С 3 4000 м мгла 8/4 750 м
[Sc Ac trans]
+31.8 +24.4 65 +44 +50 опасность
перегрева
1004.9 995.4
09 17.09 С 4 4000 м мгла 6/4 750 м
[Sc Ac trans]
+33.6 +24.2 58 +46 +49 опасность
перегрева
1002.0 992.6
12 17.09 СВ 2 2000 м гроза, ливневой дождь 10/6 600 м
[Cb cap As op]
+28.6 +26.6 89 +44 +44 опасность
перегрева
1003.8 994.2 +33.6 60

 

Местоположение метеостанции Варанаси аэропорт (Уттар-Прадеш, Индия): широта 25.45 долгота 82.86 высота над уровнем моря 85 м.

В архиве по умолчанию представлена погода в Варанаси аэропорту за последнюю неделю. Архивные данные за месяц целиком и за предыдущие месяцы, начиная с января 2011 года, Вы можете получить, выбрав интересующий диапазон дат из раскрывающегося списка и нажав кнопку "Ввод!".


*Определитесь, кто Вы:
робот инопланетянин человек

Внимание! Время в таблицах - всемирное. Для получения местного времени необходимо прибавить поправку, которая равна 5.5 ч.

Смотрите также архив погоды в соседних городах и на ближайших метеорологических станциях:

Погода в Варанаси (Уттар-Прадеш, Индия) (23 км)
Погода в Гхазипуре (Уттар-Прадеш, Индия) (70 км)
Погода в Аллахабаде (Уттар-Прадеш, Индия) (113 км)
Погода в Султанпуре (Уттар-Прадеш, Индия) (121 км)
Погода в Дехри (Бихар, Индия) (145 км)
Погода в Сидхи (Мадхья-Прадеш, Индия) (152 км)
Погода в Горакпуре (Уттар-Прадеш, Индия) (153 км)
Погода в Ферсатгиндже (Уттар-Прадеш, Индия) (174 км)
Погода в Реве (Мадхья-Прадеш, Индия) (188 км)
Погода в Чхапре (Бихар, Индия) (191 км)

Пояснения к столбцам:

Ветер - указаны скорость ветра в м/с - средняя за 10 мин, порывы в срок и между сроками (в фигурных скобках) и направление, откуда дует ветер: С - северный, СВ - северо-восточный, В - восточный, ЮВ - юго-восточный, Ю - южный, ЮЗ - юго-западный, З - западный, СЗ - северо-западный.
Видимость - горизонтальная дальность видимости в метрах или километрах. При видимости от 1 до 10 км при отсутствии осадков обычно наблюдается дымка, при ухудшении видимости до 1 км и менее - туман. В сухую погоду видимость может ухудшаться дымом, пылью или мглою.
Явления - указаны атмосферные явления, наблюдавшиеся в срок или в последний час перед сроком; фигурными скобками обозначены явления, наблюдавшиеся между сроками (за 1-3 часа до срока); квадратными скобками обозначены град или гололедные отложения с указанием их диаметра в мм.
Облачность - указаны через наклонную черту общая и нижняя облачность в баллах и высота нижней границы облаков в метрах; квадратными скобками обозначены формы облаков: Ci - перистые, Cs - перисто-слоистые, Cc - перисто-кучевые, Ac - высококучевые, As - высокослоистые, Sc - слоисто-кучевые, Ns - слоисто-дождевые, Cu - кучевые, Cb - кучево-дождевые. Подробнее классификацию облаков см. в Атласе облаков (PDF).
T - Температура воздуха - температура, измеренная на высоте 2 м над землей.
Td - Температура точки росы - температура, при понижении до которой содержащийся в воздухе водяной пар достигнет насыщения.
f - Относительная влажность воздуха - влажноcть воздуха, измеренная на высоте 2 м над землей.
Te - Эффективная температура - температура, которую ощущает одетый по сезону человек в тени. Характеристика душности погоды. При расчете учитывается влияние влажности воздуха и скорости ветра на теплоощущения человека.
Tes - Эффективная температура на солнце - температура, которую ощущает человек, с поправкой на солнечный нагрев. Характеристика знойности погоды. Зависит от высоты солнца над горизонтом, облачности и скорости ветра. Ночью, в пасмурную погоду, а также при ветре 12 м/с и более поправка равна нулю.
P - Атмосферное давление - приведенное к уровню моря атмосферное давление.
Po - Атмосферное давление - измеренное на уровне метеостанции атмосферное давление.
Tmin - Минимальная температура - минимум температуры воздуха на высоте 2 м над землей.
Tmax - Максимальная температура - максимум температуры воздуха на высоте 2 м над землей.
R - Количество осадков - Количество выпавших осадков за период времени, мм. При наведении курсора мыши на число - период времени, за который выпало указанное количество осадков.
R24 - Количество осадков - Количество выпавших осадков за 24 часа, мм.
S - Снежный покров - Высота снежного покрова, см. При наведении курсора мыши на число - состояние снежного покрова и степень покрытия местности в баллах.